Showing default

MINXSS-2, 43758

Orbit data source: Space-Track

MINXSS-2, 43758 is a payload satellite owned by CU-LASP (US) in SSO that was launched on Mon, 03 Dec 2018 UTC via an FALCON 9 launch vehicle from the Air Force Western Test Range (AFWTR). Payload-class satellites include a variety of spacecraft equipped with specific instruments for various scientific and technological missions. These include communications satellites like Starlink; space stations such as the ISS; scientific satellites like the Hubble; Earth observation satellites from companies like Planet Labs, Umbra, and HawkEye 360; GPS; miniature CubeSats for education and research; and military/defense satellites.

Loading next visibility...
Identifier
43758, 2018-099A
Orbit
SSO
Country
Flag of USUS
Related business
Manufacturer
CU-LASP
Mission
Operational Amateur Astronomy
Bus & Motor
CUBESAT 3U, Unknown motor
Mass
3.52 kg wet, 3.52 kg dry
Launch date (UTC)
2018-12-03 (7 years ago)
Launch vehicle
FALCON 9
Launch site
Air Force Western Test Range (AFWTR)
Object type
Payload
Rocket body
Debris
Shape & HBR
Box + 2 Pan + 1 Ant, 0.4 m
Radar Cross Section
0.075 m², Medium (>0.1 m² and < 1m²)

Expand to show TLE details & history
Last TLE update: 23 hours ago

TLE from 23 hours ago
0 MINXSS-2
1 43758U 18099A   26140.45236976  .00024549  00000-0  52282-3 0  9995
2 43758  97.4542 215.9660 0006697  16.9082 343.2388 15.44912684409843
Epoch: 2026-05-20T10:51Z
TLE epoch observation values (Epoch: 2026-05-20T10:51:24.747Z)
Latitude
-0.00005°
Longitude
175.00117°
Altitude
430.39 km
Speed
7.656 km/s
True Right ascension
14h 23m 51s
True Declination
0° 00' 00"
Sunlit
Object was in full shadow at epoch
Visualization orbit readout
Latitude
Unknown
Longitude
Unknown
Altitude
Unknown
Speed
Unknown
Apparent Right ascension
Unknown
Apparent Declination
Unknown
Sunlit
N/A
Visualization observer readout
Local Sidereal Time
19:11:07
Azimuth
Unknown
Elevation
Unknown
Doppler factor
Unknown
Orbital elements
Apogee altitude
433.128 km
Perigee altitude
424.011 km
Semi-major axis
6,806.706 km
Eccentricity
0.00067
Inclination
97.4542°
RAAN
215.966°
Arg. of periapsis
16.9082°
True anomaly
343.21665°
Mean anomaly
343.2388°
Eccentric anomaly
343.22773°
Mean motion
3.86489 °/min
Orbital period
93.15 mins
BSTAR
0.00052282
Loading maneuver chart data...
Computing Atmospheric mass density...
Loading historical data...
Loading historical data...
Loading historical data...
Loading historical data...
Loading historical data...
Loading historical data...
Loading historical data...

Documentation

Showing up to 5 results
|